Weather History for Meknes, Morocco

Change the Weather History Date:

Wednesday, October 3, 2012

  Actual Average Record
Temperature  
Mean Temperature 75 °F -  
Max Temperature 90 °F - - ()
Min Temperature 60 °F - - ()
Cooling Degree Days 10    
Growing Degree Days 25 (Base 50)    
Moisture  
Dew Point 51 °F    
Average Humidity 46    
Maximum Humidity 73    
Minimum Humidity 12    
Precipitation  
Precipitation 0.00 in - - ()
Sea Level Pressure  
Sea Level Pressure 30.05 in    
Wind  
Wind Speed 6 mph ()    
Max Wind Speed 12 mph    
Max Gust Speed -    
Visibility 6.1 miles    
Events      
T = Trace of Precipitation, MM = Missing Value Source: Averaged Metar Reports

Daily Weather History Graph

Daily Weather History Graph

Search for Another Location

Airport:

Trip Planner

Search our weather history database for the weather conditions in past years. The results will help you decide how hot, cold, wet, or windy it might be!

Date:

Astronomy

Oct. 03, 2012 Rise Set
Actual Time 6:18 AM WET 6:03 PM WET
Civil Twilight 5:53 AM WET 6:28 PM WET
Nautical Twilight 5:24 AM WET 6:57 PM WET
Astronomical Twilight 4:55 AM WET 7:26 PM WET
Moon 7:57 PM WET (10/3) 9:17 AM WET (10/3)
Length of Visible Light 12h 34m
Length of Day
11h 45m
Waning Gibbous, 90% of the Moon is Illuminated
Oct 3
Waning Gibbous
Oct 8
Last Quarter
Oct 15
New
Oct 22
First Quarter
Oct 29
Full

Hourly Weather History & Observations

Time (WET) Temp. Dew Point Humidity Pressure Visibility Wind Dir Wind Speed Gust Speed Precip Events Conditions
12:00 AM 66 °F 54 °F 57% 30.09 in 6 mi South 5.8 mph - -  
12:00 AM 66.2 °F 55.4 °F 68% 30.15 in - South 5.8 mph - N/A   Clear
1:00 AM 64.4 °F 55.4 °F 73% 30.12 in - ESE 3.5 mph - N/A   Clear
2:00 AM 64.4 °F 53.6 °F 68% 30.09 in - ESE 5.8 mph - N/A   Clear
3:00 AM 64 °F 54 °F 61% 30.06 in 6 mi ESE 8.1 mph - -  
3:00 AM 64.4 °F 53.6 °F 68% 30.09 in - ESE 8.1 mph - N/A   Clear
4:00 AM 64.4 °F 55.4 °F 73% 30.09 in - SSE 6.9 mph - N/A   Clear
6:00 AM 62 °F 52 °F 62% 30.06 in 6 mi ESE 9.2 mph - -  
6:00 AM 62.6 °F 51.8 °F 68% 30.09 in - ESE 9.2 mph - N/A   Clear
7:00 AM 60.8 °F 48.2 °F 63% 30.09 in - SE 6.9 mph - N/A   Clear
8:00 AM 68.0 °F 50.0 °F 52% 30.09 in - ESE 6.9 mph - N/A   Clear
9:00 AM 76 °F 49 °F 28% 30.03 in 6 mi East 5.8 mph - -   Scattered Clouds
9:00 AM 75.2 °F 50.0 °F 41% 30.12 in - East 5.8 mph - N/A   Clear
10:00 AM 82.4 °F 50.0 °F 32% 30.12 in - East 10.4 mph - N/A   Clear
11:00 AM 86.0 °F 50.0 °F 29% 30.09 in 6.2 mi NE 11.5 mph - N/A   Partly Cloudy
12:00 PM 87 °F 41 °F 12% 29.95 in 6 mi ENE 9.2 mph - -   Scattered Clouds
12:00 PM 87.8 °F 41.0 °F 19% 30.06 in 6.2 mi ENE 9.2 mph - N/A   Partly Cloudy
2:00 PM 89.6 °F 44.6 °F 21% 30.01 in 6.2 mi ENE 9.2 mph - N/A   Scattered Clouds
3:00 PM 89 °F 44 °F 13% 29.87 in 6 mi ENE 9.2 mph - -   Partly Cloudy
3:00 PM 89.6 °F 44.6 °F 21% 30.01 in 6.2 mi ENE 10.4 mph - N/A   Scattered Clouds
4:00 PM 87.8 °F 46.4 °F 24% 30.01 in 6.2 mi NW 5.8 mph - N/A   Scattered Clouds
5:00 PM 84.2 °F 50.0 °F 30% 30.01 in 6.2 mi NW 11.5 mph - N/A   Partly Cloudy
6:00 PM 81 °F 53 °F 27% 29.91 in 6 mi NW 11.5 mph - -   Scattered Clouds
6:00 PM 80.6 °F 51.8 °F 37% 30.01 in 6.2 mi NW 5.8 mph - N/A   Partly Cloudy
7:00 PM 77.0 °F 55.4 °F 47% 30.04 in - NW 6.9 mph - N/A   Clear
8:00 PM 71.6 °F 55.4 °F 57% 30.04 in - West 3.5 mph - N/A   Clear
9:00 PM 70 °F 56 °F 52% 29.98 in 6 mi South 2.3 mph - -  
9:00 PM 69.8 °F 57.2 °F 64% 30.04 in - South 2.3 mph - N/A   Clear
10:00 PM 69.8 °F 55.4 °F 60% 30.04 in - South 4.6 mph - N/A   Clear
11:00 PM 68.0 °F 55.4 °F 64% 30.04 in - SSE 3.5 mph - N/A   Clear